SL-19 DEB, 23484

Orbit data source: Space-Track

SL-19 DEB, 23484 is space debris in LEO originally from a launch on Mon, 26 Dec 1994 UTC launched from the Tyuratam Missile And Space Complex (TTMTR). Debris objects in space refer to the collection of defunct objects orbiting the Earth. Examples of debris include non-operational satellites, rocket bodies, and fragments generated from explosions, collisions, or faulty payload assembly.

Loading next visibility...
Identifier
23484, 1994-085G
Orbit
LEO
Country
Flag of CISCIS
Related business
Manufacturer
Unknown
Mission
Spacecraft
Bus & Motor
Unknown
Mass
Unknown
Launch date (UTC)
1994-12-26 (31 years ago)
Launch vehicle
Unknown
Launch site
Tyuratam Missile And Space Complex (TTMTR)
Object type
Payload
Rocket body
Debris
Shape & HBR
Unknown shape, 0.5 m
Radar Cross Section
Medium (>0.1 m² and <1 m²)

Expand to show TLE details & history
Last TLE update: 20 hours ago

TLE from 20 hours ago
0 SL-19 DEB
1 23484U 94085G   25309.56638214  .00000252  00000-0  85226-2 0  9995
2 23484  64.7315 158.4201 0237109 171.0183 217.1412 11.22786256262731
Epoch: 2025-11-05T13:35Z
TLE epoch observation values (Epoch: 2025-11-05T13:35:35.416Z)
Latitude
23.88145°
Longitude
-78.50671°
Altitude
2,208.854 km
Speed
6.751 km/s
True Right ascension
11h 21m 42s
True Declination
23° 46' 33"
Sunlit
Object was in daylight at epoch
Visualization orbit readout
Latitude
Unknown
Longitude
Unknown
Altitude
Unknown
Speed
Unknown
Apparent Right ascension
Unknown
Apparent Declination
Unknown
Sunlit
N/A
Visualization observer readout
Local Sidereal Time
05:53:06
Azimuth
Unknown
Elevation
Unknown
Doppler factor
Unknown
Orbital elements
Apogee altitude
2,244.767 km
Perigee altitude
1,845.325 km
Semi-major axis
8,423.183 km
Eccentricity
0.02371
Inclination
64.7315°
RAAN
158.4201°
Arg. of periapsis
171.0183°
True anomaly
215.53879°
Mean anomaly
217.1412°
Eccentric anomaly
216.33624°
Mean motion
2.80756 °/min
Orbital period
128.23 mins
BSTAR
0.0085226
Loading maneuver chart data...
Computing Atmospheric mass density...
Loading historical data...
Loading historical data...
Loading historical data...
Loading historical data...
Loading historical data...
Loading historical data...
Loading historical data...

Documentation

Showing up to 5 results
|